Location: Poughquag
(41.6090°N, 73.6820°W)
Time: 09:22:54
(UTC-05:00)

SR - Pass Details

Date: 12 December 2023
Orbit: 574 x 868 km, 66.7° (Epoch: 25 February)

Event Time Altitude Azimuth Distance (km) Brightness Sun altitude
Rises 09:02:26 0° 196° (SSW) 3,241 ? 14.8°
Reaches altitude 10° 09:04:47 10° 193° (SSW) 2,358 ? 15.0°
Maximum altitude 09:10:09 59° 115° (ESE) 961 ? 15.7°
Drops below altitude 10° 09:15:51 10° 37° (NE) 2,503 ? 16.3°
Sets 09:18:25 0° 34° (NE) 3,456 ? 16.6°
